| time (UTC) | temp C | wind direction | speed KPH | gust KPH | rain 1hr cm | rain 24hr cm | rain mn cm | humidity % | barometer mb |
| 20260508082523 | 9 | 209 | 6.4 | 9.7 | 0.00 | 0.00 | 0.00 | 68 | 1015.0 |
| 20260508081523 | 8 | 218 | 6.4 | 11.3 | 0.00 | 0.00 | 0.00 | 68 | 1014.9 |
| 20260508080523 | 8 | 212 | 6.4 | 9.7 | 0.00 | 0.00 | 0.00 | 69 | 1014.9 |
| 20260508075543 | 8 | 206 | 6.4 | 9.7 | 0.00 | 0.00 | 0.00 | 70 | 1014.9 |
| 20260508074522 | 8 | 210 | 4.8 | 8.0 | 0.00 | 0.00 | 0.00 | 72 | 1014.9 |
| 20260508073523 | 7 | 201 | 4.8 | 8.0 | 0.00 | 0.00 | 0.00 | 73 | 1014.9 |
| 20260508072543 | 7 | 225 | 3.2 | 4.8 | 0.00 | 0.00 | 0.00 | 74 | 1015.0 |
| 20260508071522 | 7 | 209 | 3.2 | 8.0 | 0.00 | 0.00 | 0.00 | 74 | 1015.0 |
| 20260508070523 | 8 | 0.0 | 0.0 | 0.00 | 0.00 | 0.00 | 72 | 1015.1 | |
| 20260508065523 | 8 | 209 | 4.8 | 6.4 | 0.00 | 0.00 | 0.00 | 71 | 1015.1 |
| 20260508064523 | 8 | 206 | 4.8 | 8.0 | 0.00 | 0.00 | 0.00 | 71 | 1015.1 |
| 20260508063523 | 8 | 198 | 4.8 | 9.7 | 0.00 | 0.00 | 0.00 | 73 | 1015.1 |
| 20260508062523 | 7 | 197 | 6.4 | 9.7 | 0.00 | 0.00 | 0.00 | 75 | 1015.3 |
| 20260508061523 | 7 | 174 | 4.8 | 6.4 | 0.00 | 0.00 | 0.00 | 76 | 1015.4 |
| 20260508060523 | 7 | 193 | 6.4 | 9.7 | 0.00 | 0.00 | 0.00 | 77 | 1015.5 |
| 20260508055543 | 7 | 232 | 1.6 | 4.8 | 0.00 | 0.00 | 0.00 | 79 | 1015.8 |
| 20260508054523 | 6 | 204 | 4.8 | 4.8 | 0.00 | 0.00 | 0.00 | 82 | 1015.7 |
| 20260508053523 | 7 | 192 | 4.8 | 4.8 | 0.00 | 0.00 | 0.00 | 82 | 1015.7 |
| 20260508052523 | 7 | 189 | 3.2 | 4.8 | 0.00 | 0.00 | 0.00 | 81 | 1015.7 |
| 20260508051523 | 7 | 177 | 3.2 | 4.8 | 0.00 | 0.00 | 0.00 | 78 | 1015.7 |
| 20260508050603 | 7 | 196 | 1.6 | 4.8 | 0.00 | 0.00 | 0.00 | 78 | 1015.6 |
| 20260508045523 | 7 | 0.0 | 0.0 | 0.00 | 0.00 | 0.00 | 76 | 1015.6 | |
| 20260508044523 | 8 | 0.0 | 0.0 | 0.00 | 0.00 | 0.00 | 75 | 1015.6 | |
| 20260508043523 | 8 | 199 | 4.8 | 4.8 | 0.00 | 0.00 | 0.00 | 75 | 1015.6 |
| 20260508042523 | 8 | 190 | 4.8 | 6.4 | 0.00 | 0.00 | 0.00 | 75 | 1015.6 |
| 20260508041603 | 7 | 205 | 3.2 | 4.8 | 0.00 | 0.00 | 0.00 | 77 | 1015.7 |
| 20260508040523 | 7 | 205 | 3.2 | 4.8 | 0.00 | 0.00 | 0.00 | 80 | 1015.6 |
| 20260508035523 | 7 | 220 | 1.6 | 4.8 | 0.00 | 0.00 | 0.00 | 79 | 1015.6 |
| 20260508034523 | 7 | 195 | 3.2 | 4.8 | 0.00 | 0.00 | 0.00 | 78 | 1015.7 |
| 20260508033543 | 7 | 216 | 3.2 | 4.8 | 0.00 | 0.00 | 0.00 | 80 | 1015.7 |
| 20260508032604 | 7 | 195 | 4.8 | 4.8 | 0.00 | 0.00 | 0.00 | 78 | 1015.6 |
| 20260508031523 | 7 | 199 | 3.2 | 4.8 | 0.00 | 0.00 | 0.00 | 79 | 1015.8 |
| 20260508030523 | 7 | 209 | 4.8 | 6.4 | 0.00 | 0.00 | 0.00 | 80 | 1015.7 |
| 20260508025523 | 7 | 221 | 3.2 | 4.8 | 0.00 | 0.00 | 0.00 | 84 | 1015.6 |
| 20260508024523 | 7 | 230 | 1.6 | 3.2 | 0.00 | 0.00 | 0.00 | 84 | 1015.6 |
| 20260508023524 | 7 | 0.0 | 0.0 | 0.00 | 0.00 | 0.00 | 82 | 1015.5 | |
| 20260508022523 | 7 | 233 | 1.6 | 3.2 | 0.00 | 0.00 | 0.00 | 83 | 1015.3 |
| 20260508021603 | 7 | 0.0 | 0.0 | 0.00 | 0.00 | 0.00 | 80 | 1015.3 | |
| 20260508020524 | 8 | 0.0 | 0.0 | 0.00 | 0.00 | 0.00 | 79 | 1015.3 | |
| 20260508015523 | 8 | 0.0 | 0.0 | 0.00 | 0.00 | 0.00 | 77 | 1015.2 | |
| 20260508014524 | 8 | 0.0 | 0.0 | 0.00 | 0.00 | 0.00 | 76 | 1015.2 | |
| 20260508013523 | 9 | 0.0 | 0.0 | 0.00 | 0.00 | 0.00 | 76 | 1015.1 | |
| 20260508012524 | 9 | 0.0 | 0.0 | 0.00 | 0.00 | 0.00 | 74 | 1015.1 | |
| 20260508011604 | 9 | 0.0 | 0.0 | 0.00 | 0.00 | 0.00 | 73 | 1015.0 | |
| 20260508010524 | 10 | 0.0 | 0.0 | 0.00 | 0.00 | 0.00 | 69 | 1015.0 | |
| 20260508005523 | 11 | 0.0 | 0.0 | 0.00 | 0.00 | 0.00 | 66 | 1014.9 | |
| 20260508004544 | 11 | 0.0 | 0.0 | 0.00 | 0.00 | 0.00 | 67 | 1014.9 | |
| 20260508003523 | 12 | 0.0 | 0.0 | 0.00 | 0.00 | 0.00 | 60 | 1014.9 | |
| 20260508002524 | 12 | 0.0 | 0.0 | 0.00 | 0.00 | 0.00 | 56 | 1014.9 | |
| 20260508001543 | 12 | 205 | 0.0 | 1.6 | 0.00 | 0.00 | 0.00 | 58 | 1014.8 |
| 20260508000604 | 13 | 0.0 | 0.0 | 0.00 | 0.00 | 0.00 | 53 | 1014.7 | |
| 20260507235524 | 14 | 209 | 1.6 | 4.8 | 0.00 | 0.00 | 0.00 | 46 | 1014.7 |
| 20260507234523 | 14 | 188 | 4.8 | 6.4 | 0.00 | 0.00 | 0.00 | 43 | 1014.7 |
| 20260507233524 | 15 | 180 | 6.4 | 11.3 | 0.00 | 0.00 | 0.00 | 41 | 1014.7 |
| 20260507232524 | 16 | 214 | 4.8 | 8.0 | 0.00 | 0.00 | 0.00 | 39 | 1014.7 |
| 20260507231524 | 16 | 205 | 4.8 | 6.4 | 0.00 | 0.00 | 0.00 | 40 | 1014.8 |
| 20260507230524 | 16 | 277 | 1.6 | 4.8 | 0.00 | 0.00 | 0.00 | 37 | 1014.8 |
| 20260507225523 | 16 | 295 | 1.6 | 4.8 | 0.00 | 0.00 | 0.00 | 37 | 1014.8 |
| 20260507224524 | 16 | 233 | 8.0 | 16.1 | 0.00 | 0.00 | 0.00 | 37 | 1014.9 |
| 20260507223524 | 17 | 225 | 8.0 | 11.3 | 0.00 | 0.00 | 0.00 | 37 | 1014.9 |
| 20260507222523 | 18 | 332 | 4.8 | 9.7 | 0.00 | 0.00 | 0.00 | 34 | 1014.9 |
| 20260507221524 | 18 | 229 | 3.2 | 6.4 | 0.00 | 0.00 | 0.00 | 32 | 1014.9 |
| 20260507220524 | 17 | 319 | 3.2 | 6.4 | 0.00 | 0.00 | 0.00 | 34 | 1014.8 |
| 20260507215524 | 17 | 286 | 4.8 | 14.5 | 0.00 | 0.00 | 0.00 | 35 | 1014.8 |
| 20260507214524 | 17 | 228 | 4.8 | 9.7 | 0.00 | 0.00 | 0.00 | 36 | 1014.7 |
| 20260507213524 | 17 | 263 | 6.4 | 9.7 | 0.00 | 0.00 | 0.00 | 34 | 1014.9 |
| 20260507212524 | 17 | 227 | 6.4 | 11.3 | 0.00 | 0.00 | 0.00 | 36 | 1015.0 |
| 20260507211524 | 17 | 234 | 6.4 | 12.9 | 0.00 | 0.00 | 0.00 | 36 | 1015.2 |
| 20260507210524 | 17 | 275 | 6.4 | 11.3 | 0.00 | 0.00 | 0.00 | 37 | 1015.2 |
| 20260507205524 | 16 | 207 | 8.0 | 12.9 | 0.00 | 0.00 | 0.00 | 40 | 1015.2 |
| 20260507204604 | 16 | 258 | 9.7 | 14.5 | 0.00 | 0.00 | 0.00 | 38 | 1015.2 |
| 20260507203524 | 16 | 241 | 6.4 | 12.9 | 0.00 | 0.00 | 0.00 | 37 | 1015.2 |
| 20260507202524 | 17 | 5 | 9.7 | 12.9 | 0.00 | 0.00 | 0.00 | 39 | 1015.3 |
| 20260507201524 | 17 | 8 | 8.0 | 16.1 | 0.00 | 0.00 | 0.00 | 37 | 1015.4 |
| 20260507200524 | 16 | 119 | 4.8 | 8.0 | 0.00 | 0.00 | 0.00 | 37 | 1015.4 |
| 20260507195524 | 15 | 7 | 9.7 | 17.7 | 0.00 | 0.00 | 0.00 | 39 | 1015.5 |
| 20260507194524 | 16 | 281 | 6.4 | 14.5 | 0.00 | 0.00 | 0.00 | 39 | 1015.6 |
| 20260507193524 | 16 | 11 | 4.8 | 12.9 | 0.00 | 0.00 | 0.00 | 39 | 1015.6 |
| 20260507192645 | 17 | 214 | 6.4 | 12.9 | 0.00 | 0.00 | 0.00 | 39 | 1015.7 |
| 20260507191524 | 16 | 13 | 8.0 | 16.1 | 0.00 | 0.00 | 0.00 | 40 | 1015.7 |
| 20260507190524 | 15 | 7 | 9.7 | 20.9 | 0.00 | 0.00 | 0.00 | 40 | 1015.7 |
| 20260507185524 | 16 | 346 | 8.0 | 12.9 | 0.00 | 0.00 | 0.00 | 38 | 1015.8 |
| 20260507184544 | 16 | 263 | 8.0 | 14.5 | 0.00 | 0.00 | 0.00 | 41 | 1015.8 |
| 20260507183524 | 16 | 9 | 9.7 | 14.5 | 0.00 | 0.00 | 0.00 | 39 | 1015.8 |
| 20260507182524 | 17 | 84 | 4.8 | 9.7 | 0.00 | 0.00 | 0.00 | 39 | 1015.9 |
| 20260507181524 | 16 | 332 | 6.4 | 12.9 | 0.00 | 0.00 | 0.00 | 41 | 1015.8 |
| 20260507180544 | 15 | 358 | 8.0 | 17.7 | 0.00 | 0.00 | 0.00 | 40 | 1016.2 |
| 20260507175525 | 15 | 5 | 9.7 | 17.7 | 0.00 | 0.00 | 0.00 | 42 | 1016.1 |
| 20260507174524 | 15 | 1 | 8.0 | 14.5 | 0.00 | 0.00 | 0.00 | 43 | 1016.2 |
| 20260507173524 | 15 | 352 | 11.3 | 19.3 | 0.00 | 0.00 | 0.00 | 40 | 1016.4 |
| 20260507172524 | 15 | 354 | 6.4 | 12.9 | 0.00 | 0.00 | 0.00 | 41 | 1016.6 |
| 20260507171524 | 15 | 354 | 9.7 | 16.1 | 0.00 | 0.00 | 0.00 | 42 | 1016.7 |
| 20260507170525 | 15 | 250 | 4.8 | 9.7 | 0.00 | 0.00 | 0.00 | 40 | 1016.8 |
| 20260507165524 | 15 | 357 | 9.7 | 22.5 | 0.00 | 0.00 | 0.00 | 42 | 1016.9 |
| 20260507164525 | 15 | 278 | 6.4 | 11.3 | 0.00 | 0.00 | 0.00 | 42 | 1016.9 |
| 20260507163545 | 13 | 7 | 8.0 | 16.1 | 0.00 | 0.00 | 0.00 | 43 | 1017.0 |
| 20260507162524 | 13 | 343 | 9.7 | 16.1 | 0.00 | 0.00 | 0.00 | 44 | 1017.0 |
| 20260507161545 | 15 | 326 | 8.0 | 19.3 | 0.00 | 0.00 | 0.00 | 42 | 1017.0 |
| 20260507160525 | 13 | 5 | 9.7 | 17.7 | 0.00 | 0.00 | 0.00 | 43 | 1017.0 |
| 20260507155526 | 15 | 327 | 8.0 | 14.5 | 0.00 | 0.00 | 0.00 | 42 | 1017.0 |
| 20260507154605 | 15 | 291 | 6.4 | 11.3 | 0.00 | 0.00 | 0.00 | 41 | 1017.0 |
| 20260507153524 | 14 | 6 | 8.0 | 25.7 | 0.00 | 0.00 | 0.00 | 42 | 1017.1 |
| 20260507152525 | 13 | 241 | 8.0 | 12.9 | 0.00 | 0.00 | 0.00 | 41 | 1017.1 |
| 20260507151525 | 13 | 296 | 8.0 | 16.1 | 0.00 | 0.00 | 0.00 | 41 | 1017.1 |
| 20260507150525 | 13 | 346 | 6.4 | 12.9 | 0.00 | 0.00 | 0.00 | 45 | 1017.0 |
| 20260507145525 | 13 | 9 | 8.0 | 17.7 | 0.00 | 0.00 | 0.00 | 44 | 1017.0 |
| 20260507144525 | 13 | 9 | 6.4 | 11.3 | 0.00 | 0.00 | 0.00 | 45 | 1017.0 |
| 20260507143524 | 12 | 350 | 8.0 | 12.9 | 0.00 | 0.00 | 0.00 | 46 | 1017.0 |
| 20260507142545 | 13 | 323 | 6.4 | 14.5 | 0.00 | 0.00 | 0.00 | 45 | 1017.0 |
| 20260507141525 | 12 | 346 | 8.0 | 12.9 | 0.00 | 0.00 | 0.00 | 44 | 1017.0 |
| 20260507140546 | 12 | 353 | 6.4 | 14.5 | 0.00 | 0.00 | 0.00 | 45 | 1016.9 |
| 20260507135525 | 12 | 321 | 8.0 | 12.9 | 0.00 | 0.00 | 0.00 | 45 | 1017.0 |
| 20260507134525 | 12 | 277 | 4.8 | 9.7 | 0.00 | 0.00 | 0.00 | 48 | 1016.9 |
| 20260507133525 | 12 | 235 | 4.8 | 8.0 | 0.00 | 0.00 | 0.00 | 51 | 1016.9 |
| 20260507132605 | 12 | 245 | 3.2 | 6.4 | 0.00 | 0.00 | 0.00 | 55 | 1017.0 |
| 20260507131525 | 12 | 288 | 3.2 | 6.4 | 0.00 | 0.00 | 0.00 | 57 | 1016.9 |
| 20260507130525 | 12 | 274 | 1.6 | 4.8 | 0.00 | 0.00 | 0.00 | 59 | 1016.9 |
| 20260507125525 | 11 | 271 | 1.6 | 4.8 | 0.00 | 0.00 | 0.00 | 62 | 1016.9 |
| 20260507124525 | 11 | 5 | 3.2 | 8.0 | 0.00 | 0.00 | 0.00 | 64 | 1016.9 |
| 20260507123525 | 9 | 257 | 0.0 | 3.2 | 0.00 | 0.00 | 0.00 | 73 | 1016.8 |
| 20260507122525 | 8 | 0.0 | 0.0 | 0.00 | 0.00 | 0.00 | 90 | 1016.8 | |
| 20260507121525 | 7 | 0.0 | 0.0 | 0.00 | 0.00 | 0.00 | 95 | 1016.8 | |
| 20260507120626 | 6 | 0.0 | 0.0 | 0.00 | 0.00 | 0.00 | 95 | 1016.7 | |
| 20260507115525 | 5 | 0.0 | 0.0 | 0.00 | 0.00 | 0.00 | 95 | 1016.7 | |
| 20260507114525 | 4 | 0.0 | 0.0 | 0.00 | 0.00 | 0.00 | 95 | 1016.7 | |
| 20260507113525 | 3 | 0.0 | 0.0 | 0.00 | 0.00 | 0.00 | 96 | 1016.7 | |
| 20260507112525 | 2 | 0.0 | 0.0 | 0.00 | 0.00 | 0.00 | 96 | 1016.7 | |
| 20260507111525 | 2 | 0.0 | 0.0 | 0.00 | 0.00 | 0.00 | 96 | 1016.6 | |
| 20260507110525 | 2 | 0.0 | 0.0 | 0.00 | 0.00 | 0.00 | 96 | 1016.7 | |
| 20260507105525 | 2 | 0.0 | 0.0 | 0.00 | 0.00 | 0.00 | 96 | 1016.6 | |
| 20260507104526 | 2 | 0.0 | 0.0 | 0.00 | 0.00 | 0.00 | 96 | 1016.5 | |
| 20260507103525 | 2 | 0.0 | 0.0 | 0.00 | 0.00 | 0.00 | 96 | 1016.4 | |
| 20260507102525 | 2 | 0.0 | 0.0 | 0.00 | 0.00 | 0.00 | 96 | 1016.3 | |
| 20260507101546 | 2 | 0.0 | 0.0 | 0.00 | 0.00 | 0.00 | 96 | 1016.3 | |
| 20260507100525 | 2 | 0.0 | 0.0 | 0.00 | 0.00 | 0.00 | 96 | 1016.2 | |
| 20260507095525 | 2 | 0.0 | 0.0 | 0.00 | 0.00 | 0.00 | 96 | 1016.3 | |
| 20260507094525 | 2 | 0.0 | 0.0 | 0.00 | 0.00 | 0.00 | 96 | 1016.3 | |
| 20260507093526 | 3 | 0.0 | 0.0 | 0.00 | 0.00 | 0.00 | 96 | 1016.2 | |
| 20260507092525 | 3 | 0.0 | 0.0 | 0.00 | 0.00 | 0.00 | 96 | 1016.3 | |
| 20260507091525 | 3 | 0.0 | 0.0 | 0.00 | 0.00 | 0.00 | 96 | 1016.3 | |
| 20260507090525 | 3 | 0.0 | 0.0 | 0.00 | 0.00 | 0.00 | 96 | 1016.3 | |
| 20260507085525 | 3 | 0.0 | 0.0 | 0.00 | 0.00 | 0.00 | 96 | 1016.2 | |
| 20260507084526 | 3 | 0.0 | 0.0 | 0.00 | 0.00 | 0.00 | 97 | 1016.2 | |
| 20260507083526 | 3 | 0.0 | 0.0 | 0.00 | 0.00 | 0.00 | 97 | 1016.1 |